sat.trackr.live / text

‹ back to catalog

STARLINK-36155

NORAD 66938 · 2025-286P

PAYLOAD ACTIVE UNKNOWN

§ Identity

Operator
Country
US
Launch date
2025-12-07
Launch site
AFWTR
Launch vehicle
Mass (kg)
RCS (m²)

Purposes: comms

External: N2YO · Heavens-Above · Gunter

§ Orbital elements

Epoch: 2026-05-24T23:40:41.458080Z

Period
93.85 min
Inclination
53.1601°
Eccentricity
0.0000918
Mean motion
15.34409689 rev/d
Perigee alt
462.0 km
Apogee alt
463.3 km
Semi-major
6,840.8 km
B*
4.7690e-4
RAAN
3.6680°
Arg perigee
85.3475°
Mean anomaly
274.7633°
Rev number
2,710

§ Raw data

STARLINK-361551 66938U 25286P   26144.98659095  .00015776  00000+0  47690-3 0  99972 66938  53.1601   3.6680 0000918  85.3475 274.7633 15.34409689 27104

JSON: /api/v1/satellites/66938 · /tle

For live sub-satellite position, see the globe view (requires WebGL).

§ Visibility from observer

Set your observer location to see the next 7 days of passes ≥ 10°. The values pass through the URL so the page stays shareable.

No JS? Fill the form by hand. The geolocation button needs JavaScript.